Location: Hengforden
(52.3167°N, 6.1333°E)
Time: 16:03:32
(UTC+00:00)

NOSS 2-1 (E) - Pass Details

Date: 14 June 2025
Orbit: 385 x 1749 km, 63.3° (Epoch: 07 May)

Event Time Altitude Azimuth Distance (km) Brightness Sun altitude
Rises 22:32:29 0° 316° (NW) 2,329 7.7 -13.1°
Reaches altitude 10° 22:34:26 10° 324° (NW) 1,528 6.8 -13.2°
Maximum altitude 22:37:34 41° 37° (NE) 717 4.2 -13.3°
Drops below altitude 10° 22:41:30 10° 109° (ESE) 1,911 5.8 -13.4°
Enters shadow 22:42:35 - 113° (ESE) 2,352 6.2 -13.5°
